{"data":{"norad_id":59112,"epoch":"2026-05-25T03:24:52.897824Z","epoch_age_seconds":52834,"freshness":"FRESH","line1":"1 59112U 24043Q   26145.14227891  .00037565  00000+0  52297-3 0  9996","line2":"2 59112  97.5510 294.1608 0005850 279.7869  80.2725 15.56848979124309","mean_motion":15.56848979,"eccentricity":0.000585,"inclination_deg":97.551,"raan_deg":294.1608,"arg_perigee_deg":279.7869,"mean_anomaly_deg":80.2725,"bstar":0.00052297,"rev_number":12430,"period_min":92.494520626204,"perigee_km":392.81986740269,"apogee_km":400.74652403168,"semimajor_km":6774.9201957172,"source":"CELESTRAK","updated_at":"2026-05-25T13:38:23.293407Z"}}